Tracking 28052 objects as of 25-Sep-2023
HD Live streaming from Space Station
objects crossing your sky now

SL-8 DEB

Track SL-8 DEB now!
10-day predictions


NORAD ID: 22841
Int'l Code: 1991-009CL
Perigee: 1,484.0 km
Apogee: 1,689.7 km
Inclination: 74.0 °
Period: 117.7 minutes
Semi major axis: 7957 km
RCS: 0.0241 m2 (small)
Launch date: February 12, 1991
Source: Commonwealth of Independent States (former USSR) (CIS)
Launch site: PLESETSK MISSILE AND SPACE COMPLEX (PKMTR)

Note: This is SATELLITE DEBRIS
Your satellite tracking list
Your tracking list is empty




NASA's NSSDC Master Catalog

Two Line Element Set (TLE):
1 22841U 91009CL  23268.29408233  .00000027  00000-0  37702-3 0  9999
2 22841  74.0396 277.4080 0129252 157.5409 215.6964 12.22945855452971
Source of the keplerian elements: AFSPC